• MPC Preparation (Info)

  • MPEC 1994-Y02 : 1994 RH

    The following Minor Planet Electronic Circular may be linked-to from your own Web pages, but must not otherwise be redistributed electronically.

    A form allowing access to any MPEC is at the bottom of this page.


    Read MPEC 1994-Y01 Read MPEC 1994-Y03


    M.P.E.C. 1994-Y02                                Issued 1994 Dec. 17, 15:21 UT
    
         The Minor Planet Electronic Circulars contain information on unusual
             minor planets and routine data on comets.  They are published
       on behalf of Commission 20 of the International Astronomical Union by the
              Minor Planet Center, Smithsonian Astrophysical Observatory,
                              Cambridge, MA 02138, U.S.A.
    
              MARSDEN@CFA or WILLIAMS@CFA (.HARVARD.EDU, .SPAN or .BITNET)
    
                                        1994 RH
    
    Precovered by K. Lawrence at Palomar at a Delta-T of +0.13 days from the
    prediction on MPC 24409.
    
    Additional observations:
         J94R00H  A1984 09 21.31389 01 26 27.78 +45 15 32.3          16.5        675
         J94R00H  A1984 09 21.34167 01 26 27.41 +45 16 47.7                      675
         J94R00H  A1984 09 21.34861 01 26 27.16 +45 17 10.8                      675
         J94R00H  A1984 09 21.35556 01 26 27.02 +45 17 31.0                      675
    
    Observer details:
    675 Palomar Mountain.  Observers E. F. Helin, R. S. Dunbar, M. A. Barucci.
        Measurer K. Lawrence.  1.2-m Schmidt.
    
    Orbital elements:
    1994 RH
    Id. K. Lawrence (1984 observations)
    Epoch 1995 Mar. 24.0 TT = JDT 2449800.5                 Williams
    M  23.17817              (2000.0)            P               Q
    n   0.29269303     Peri.   91.81088     +0.42036705     -0.89422197
    a   2.2466106      Node   331.70172     +0.64849607     +0.41465750
    e   0.4414984      Incl.   18.93280     +0.63462145     +0.16860080
    P   3.37           H   16.0           G   0.15
    Residuals in seconds of arc
    840921 675  0.9-  1.4+    940910 046  0.6-  0.4-    941007 658  0.2-  0.1+
    840921 675 (1.2+  3.4-)   940911 671  0.8-  0.4-    941007 658  0.2-  0.2+
    840921 675  0.1+  0.2-    940911 671  0.7-  0.0     941007 658  0.3-  0.2+
    840921 675  0.2+  0.0     940911 671  1.1-  0.1-    941007 675  0.5-  0.1-
    940812 809  0.2+  1.9+    940911 010 (3.0-  0.8+)   941007 675  1.0+  0.6-
    940812 809  0.5+  1.1+    940911 010  0.9+  1.7-    941008 671  0.2-  0.6+
    940812 809  0.2-  1.6+    940911 010  1.9-  0.5-    941008 671  0.4-  0.7+
    940813 809 (1.8+  2.5+)   940911 010  0.1+  0.4-    941008 671  0.4-  0.6+
    940813 809  2.3+  2.4+    940913 360  0.9-  0.0     941008 540  0.2+  0.1-
    940813 809  1.1+  2.5+    940913 360  0.6-  0.3-    941008 540  0.4-  0.2+
    940902 675  1.3-  0.2+    940925 360  0.5+  0.2+    941008 540  0.1-  0.0
    940902 675  2.1+  0.2+    940925 360  0.6+  0.1-    941009 675  0.7+  1.2-
    940905 675  1.2+  0.5+    940928 540  0.1-  0.2+    941009 675  0.5-  1.1-
    940905 675  1.1+  0.2-    940928 540  0.4-  0.9-    941014 360  0.3+  0.2+
    940906 670  0.3+  1.0-    940928 540  0.4-  1.1-    941014 360  0.7+  0.3+
    940906 670 (5.2-  1.0-)   940929 658  0.2+  0.0     941014 360  0.8+  0.2+
    940906 670  1.9+  0.5+    940929 658  0.1-  0.1+    941029 587  0.2+  0.5+
    940906 670  0.8-  0.6+    940929 658  0.0   0.2+    941029 587  0.9+  0.0
    940906 675  0.7-  1.0-    941002 671  0.5+  0.1-    941029 587  0.1-  0.4-
    940907 670  0.6+  0.5-    941002 671  0.2-  0.6+    941030 360  0.5+  0.6+
    940907 670  0.5+  1.1+    941002 671  0.2-  0.2-    941030 360  0.1+  0.7+
    940907 670  1.4-  0.5-    941002 046  0.6+  0.8+    941031 540  0.4-  0.2-
    940907 670  0.1+  0.9-    941002 046  0.3+  0.4+    941031 540  0.7-  0.2+
    940908 360  0.3+  1.2-    941002 046  0.4+  0.5+    941031 540  0.1-  0.3-
    940908 360  0.3-  0.9-    941004 801  0.3+  0.7+    941111 413  0.1+  0.3+
    940909 360  0.5-  0.4-    941004 801  0.3+  0.0     941111 413  0.1+  0.6+
    940909 360  0.2-  0.7-    941004 046  1.5+  0.3-    941122 540  0.1+  0.4+
    940909 587  0.5-  0.0     941004 046  0.9+  0.0     941122 540  0.2-  0.5-
    940909 587  0.3-  1.0-    941004 046  0.5+  0.4-    941122 540  0.1-  0.2+
    940909 587  0.8-  0.6-    941005 658  0.0   0.8-    941124 360  0.1+  0.8+
    940909 046  0.6-  0.1-    941005 658  0.1+  0.8-    941124 360  0.1-  0.9+
    940909 046  0.5-  0.3-    941005 658  0.1+  0.8-    941202 540  0.4+  0.0
    940909 046  0.8-  0.4-    941006 658  0.2-  0.4+    941202 540  0.3+  0.1+
    940910 046  1.0-  0.2-    941006 658  0.2-  0.5+    941202 540  0.1-  0.2-
    940910 046  0.9-  0.1+    941006 658  0.0   0.4+
    
    Ephemeris:
    1994 RH                  a,e,i = 2.25, 0.44, 19                  q = 1.2547
    Date    TT    R. A. (2000) Decl.     Delta      r     Elong.  Phase     V
    1994 12 14    22 38.50   +22 50.6    0.822    1.272    89.1    50.7    18.0
    1994 12 24    23 05.64   +25 45.0    0.840    1.260    87.0    51.2    18.0
    1995 01 03    23 37.31   +28 40.2    0.857    1.255    85.7    51.4    18.1
    1995 01 13    00 13.58   +31 26.9    0.878    1.258    84.9    51.1    18.1
    1995 01 23    00 54.22   +33 52.4    0.904    1.270    84.4    50.5    18.2
    1995 02 02    01 38.56   +35 43.4    0.938    1.289    84.1    49.5    18.3
    1995 02 12    02 25.34   +36 49.3    0.983    1.316    83.8    48.2    18.4
    1995 02 22    03 12.74   +37 04.4    1.040    1.349    83.3    46.7    18.5
    1995 03 04    03 58.97   +36 30.3    1.110    1.387    82.4    45.1    18.7
    1995 03 14    04 42.64   +35 15.0    1.193    1.430    81.1    43.4    18.8
    1995 03 24    05 22.96   +33 28.7    1.289    1.477    79.4    41.5    19.0
    1995 04 03    05 59.76   +31 21.4    1.397    1.527    77.2    39.7    19.2
    1995 04 13    06 33.26   +29 01.5    1.514    1.580    74.7    37.7    19.4
    1995 04 23    07 03.80   +26 34.7    1.639    1.634    71.9    35.8    19.6
    1995 05 03    07 31.82   +24 04.8    1.770    1.689    68.7    33.8    19.8
    1995 05 13    07 57.73   +21 34.2    1.906    1.745    65.3    31.7    20.0
    1995 05 23    08 21.85   +19 04.0    2.044    1.802    61.8    29.7    20.1
    1995 06 02    08 44.50   +16 35.0    2.184    1.858    58.0    27.6    20.3
    1995 06 12    09 05.92   +14 07.5    2.324    1.914    54.1    25.5    20.4
    
    Gareth V. Williams                                            M.P.E.C. 1994-Y02
    

    Read MPEC 1994-Y01 Read MPEC 1994-Y03


    MPEC number:

    Enter an MPEC number in one of the following forms:

    • 1997-B01 (the full form)
    • J97B01 (the packed version of the full form)
    • B01 (the abbreviated form)